Weather History for Torrington, WY

Change the Weather History Date:

Friday, March 22, 2013

  Actual Average Record
Temperature  
Mean Temperature 35 °F 39 °F  
Max Temperature 47 °F 53 °F 78 °F (2004)
Min Temperature 23 °F 26 °F 13 °F (2002)
Degree Days  
Heating Degree Days 30 26  
Month to date heating degree days 585 622  
Since 1 July heating degree days 5198 5466  
Cooling Degree Days 0 0  
Month to date cooling degree days 0 0  
Year to date cooling degree days 0 0  
Moisture  
Dew Point 18 °F    
Average Humidity 56    
Maximum Humidity 88    
Minimum Humidity 24    
Precipitation  
Precipitation 0.00 in 0.03 in 0.05 in (2008)
Month to date precipitation 0.15 0.43  
Year to date precipitation 0.54 1.03  
Sea Level Pressure  
Sea Level Pressure 29.88 in    
Wind  
Wind Speed 9 mph (NW)    
Max Wind Speed 23 mph    
Max Gust Speed 30 mph    
Visibility 10 miles    
Events      
T = Trace of Precipitation, MM = Missing Value Source: NWS Daily Summary

Daily Weather History Graph

Daily Weather History Graph

Search for Another Location

Airport:

Trip Planner

Search our weather history database for the weather conditions in past years. The results will help you decide how hot, cold, wet, or windy it might be!

Date:

Astronomy

Mar. 22, 2013 Rise Set
Actual Time 6:55 AM MDT 7:11 PM MDT
Civil Twilight 6:28 AM MDT 7:39 PM MDT
Nautical Twilight 5:55 AM MDT 8:12 PM MDT
Astronomical Twilight 5:21 AM MDT 8:45 PM MDT
Moon 2:37 PM MDT (3/22) 4:02 AM MDT (3/22)
Length of Visible Light 13h 11m
Length of Day
12h 15m
Waxing Gibbous, 78% of the Moon is Illuminated
Mar 22
Waxing Gibbous
Mar 27
Full
Apr 2
Last Quarter
Apr 10
New
Apr 18
First Quarter

Hourly Weather History & Observations

Time (MDT) Temp. Windchill Dew Point Humidity Pressure Visibility Wind Dir Wind Speed Gust Speed Precip Events Conditions
12:53 AM 28.0 °F 20.0 °F 24.1 °F 85% 29.86 in 10.0 mi WNW 8.1 mph - N/A   Partly Cloudy
1:53 AM 30.0 °F 23.2 °F 24.1 °F 79% 29.85 in 10.0 mi NW 6.9 mph - N/A   Overcast
2:53 AM 28.9 °F 23.9 °F 25.0 °F 85% 29.86 in 10.0 mi WNW 4.6 mph - N/A   Overcast
3:53 AM 28.9 °F - 24.1 °F 82% 29.86 in 10.0 mi Calm Calm - 0.00 in   Overcast
4:53 AM 28.0 °F - 25.0 °F 88% 29.87 in 10.0 mi Calm Calm - N/A   Overcast
5:53 AM 27.0 °F 23.0 °F 23.0 °F 85% 29.86 in 10.0 mi North 3.5 mph - N/A   Partly Cloudy
6:53 AM 26.1 °F - 21.9 °F 84% 29.88 in 10.0 mi Calm Calm - N/A   Partly Cloudy
7:53 AM 25.0 °F 20.7 °F 21.9 °F 88% 29.89 in 10.0 mi West 3.5 mph - N/A   Overcast
8:53 AM 30.9 °F - 21.0 °F 67% 29.87 in 10.0 mi Calm Calm - N/A   Clear
9:53 AM 34.0 °F 25.5 °F 18.0 °F 52% 29.86 in 10.0 mi WNW 11.5 mph - N/A   Clear
10:53 AM 37.0 °F 31.6 °F 19.0 °F 48% 29.86 in 10.0 mi NW 6.9 mph 16.1 mph N/A   Clear
11:53 AM 39.9 °F 31.1 °F 14.0 °F 35% 29.84 in 10.0 mi WNW 17.3 mph 20.7 mph N/A   Partly Cloudy
12:53 PM 42.1 °F 37.1 °F 10.0 °F 27% 29.81 in 10.0 mi WNW 8.1 mph 19.6 mph N/A   Clear
1:53 PM 42.1 °F 35.7 °F 8.1 °F 25% 29.78 in 10.0 mi West 11.5 mph - N/A   Overcast
2:53 PM 42.1 °F 36.1 °F 9.0 °F 26% 29.78 in 10.0 mi WNW 10.4 mph 23.0 mph N/A   Mostly Cloudy
3:53 PM 41.0 °F 33.1 °F 10.9 °F 29% 29.80 in 10.0 mi NW 15.0 mph 21.9 mph N/A   Scattered Clouds
4:53 PM 39.0 °F 31.4 °F 12.9 °F 34% 29.83 in 10.0 mi NNW 12.7 mph 18.4 mph N/A   Scattered Clouds
5:53 PM 37.0 °F 26.4 °F 18.0 °F 46% 29.86 in 10.0 mi NNW 20.7 mph 29.9 mph N/A   Mostly Cloudy
6:53 PM 33.1 °F 23.4 °F 18.0 °F 54% 29.92 in 10.0 mi North 13.8 mph 26.5 mph N/A   Mostly Cloudy
7:53 PM 30.9 °F 19.4 °F 18.0 °F 59% 29.95 in 10.0 mi North 17.3 mph 25.3 mph N/A   Clear
8:53 PM 28.0 °F 18.1 °F 18.0 °F 66% 29.98 in 10.0 mi North 11.5 mph 17.3 mph N/A   Partly Cloudy
9:53 PM 28.0 °F 21.7 °F 18.0 °F 66% 30.01 in 10.0 mi NNW 5.8 mph - N/A   Mostly Cloudy
10:53 PM 27.0 °F 16.7 °F 19.9 °F 75% 29.99 in 10.0 mi North 11.5 mph - N/A   Mostly Cloudy
11:53 PM 28.0 °F 19.3 °F 21.0 °F 75% 29.99 in 10.0 mi NNW 9.2 mph - N/A   Overcast